Location: Caltech
(34.1382°N, 118.1253°W)
Time: 12:57:53
(UTC-07:00)

Cosmos 2360 Rocket - Visible Passes

Search period start: 25 July 2014 00:00
Search period end: 04 August 2014 00:00
Orbit: 834 x 845 km, 71.0° (Epoch: 25 July)

Date Brightness Start Highest point End Pass type
(mag) Time Alt. Az. Time Alt. Az. Time Alt. Az.
25 Jul 4.2 20:48:58 10° NNE 20:51:08 12° NE 20:53:17 10° ENE visible
25 Jul 2.0 22:30:10 10° NNW 22:35:50 86° WSW 22:36:16 77° S visible
26 Jul 4.3 20:33:48 10° NE 20:35:30 11° NE 20:37:11 10° ENE visible
26 Jul 2.1 22:14:35 10° NNW 22:20:16 89° ENE 22:21:12 64° SSE visible
27 Jul 2.1 21:59:01 10° NNW 22:04:41 83° ENE 22:06:11 51° SSE visible
28 Jul 2.1 21:43:26 10° NNW 21:49:07 78° ENE 21:51:13 40° SSE visible
28 Jul 4.7 23:31:08 10° W 23:32:19 11° W 23:33:00 10° WSW visible
29 Jul 2.2 21:27:52 10° NNW 21:33:32 73° ENE 21:36:18 31° SSE visible
29 Jul 4.6 23:14:54 10° WNW 23:16:47 12° W 23:18:05 11° WSW visible
30 Jul 2.2 21:12:19 10° NNW 21:17:57 68° ENE 21:21:26 24° SE visible
30 Jul 4.6 22:58:53 10° WNW 23:01:15 13° W 23:03:14 11° WSW visible
31 Jul 2.3 20:56:45 10° NNW 21:02:23 63° ENE 21:06:38 18° SE visible
31 Jul 4.6 22:42:58 10° WNW 22:45:43 14° W 22:48:26 10° SW visible
01 Aug 2.3 20:41:12 10° NNW 20:46:48 59° ENE 20:51:54 12° SE visible
01 Aug 4.6 22:27:06 10° WNW 22:30:11 15° W 22:33:16 10° SW visible
02 Aug 2.4 20:25:39 10° NNW 20:31:13 55° ENE 20:36:44 10° SE visible
02 Aug 4.6 22:11:17 10° WNW 22:14:39 16° W 22:18:01 10° SW visible
03 Aug 2.5 20:10:07 10° N 20:15:38 51° ENE 20:21:06 10° SE visible
03 Aug 4.5 21:55:30 10° WNW 21:59:07 18° W 22:02:44 10° SW visible
